TimePST,TemperatureF,Dew PointF,Humidity,Sea Level PressureIn,VisibilityMPH,Wind Direction,Wind SpeedMPH,Gust SpeedMPH,PrecipitationIn,Events,Conditions,WindDirDegrees,DateUTC
12:52 AM,46.0,21.0,37,30.05,-9999.0,NNE,6.9,-,N/A,,Unknown,30,2012-11-05 08:52:00
1:52 AM,54.0,21.0,28,30.03,-9999.0,ENE,10.4,-,N/A,,Unknown,60,2012-11-05 09:52:00
2:52 AM,57.0,19.9,24,30.02,-9999.0,Calm,Calm,-,N/A,,Unknown,0,2012-11-05 10:52:00
3:52 AM,48.9,21.0,33,30.04,-9999.0,Calm,Calm,-,N/A,,Unknown,0,2012-11-05 11:52:00
4:52 AM,48.9,21.0,33,30.04,-9999.0,Calm,Calm,-,N/A,,Unknown,0,2012-11-05 12:52:00
5:52 AM,55.9,21.0,26,30.05,-9999.0,ENE,4.6,-,N/A,,Unknown,60,2012-11-05 13:52:00
6:52 AM,61.0,21.0,21,30.07,-9999.0,ENE,6.9,-,N/A,,Unknown,60,2012-11-05 14:52:00
7:52 AM,73.9,23.0,15,30.07,-9999.0,ENE,10.4,-,N/A,,Unknown,60,2012-11-05 15:52:00
8:52 AM,80.1,21.9,12,30.06,-9999.0,East,10.4,-,N/A,,Unknown,90,2012-11-05 16:52:00
9:52 AM,81.0,21.0,11,30.06,-9999.0,East,15.0,-,N/A,,Unknown,80,2012-11-05 17:52:00
10:52 AM,82.0,21.0,10,30.05,-9999.0,NNE,12.7,-,N/A,,Unknown,30,2012-11-05 18:52:00
11:52 AM,82.0,19.0,10,30.03,-9999.0,ENE,12.7,-,N/A,,Unknown,70,2012-11-05 19:52:00
12:52 PM,82.9,19.9,10,30.00,-9999.0,NE,12.7,-,N/A,,Unknown,50,2012-11-05 20:52:00
1:52 PM,82.9,19.9,10,29.98,-9999.0,NNE,12.7,-,N/A,,Unknown,30,2012-11-05 21:52:00
2:52 PM,82.0,19.0,10,29.98,-9999.0,ENE,11.5,-,N/A,,Unknown,60,2012-11-05 22:52:00
3:52 PM,80.1,19.9,11,29.99,-9999.0,ENE,13.8,-,N/A,,Unknown,60,2012-11-05 23:52:00
4:52 PM,73.9,21.0,14,30.01,-9999.0,NE,8.1,-,N/A,,Unknown,40,2012-11-06 00:52:00
5:52 PM,64.9,21.0,19,30.03,-9999.0,Calm,Calm,-,N/A,,Unknown,0,2012-11-06 01:52:00
6:52 PM,57.9,21.9,25,30.04,-9999.0,NE,6.9,-,N/A,,Unknown,40,2012-11-06 02:52:00
7:52 PM,55.9,21.9,27,30.03,-9999.0,NE,3.5,-,N/A,,Unknown,40,2012-11-06 03:52:00
8:52 PM,53.1,23.0,31,30.03,-9999.0,NE,4.6,-,N/A,,Unknown,50,2012-11-06 04:52:00
9:52 PM,54.0,23.0,30,30.04,-9999.0,NE,4.6,-,N/A,,Unknown,50,2012-11-06 05:52:00
10:52 PM,48.9,23.0,36,30.03,-9999.0,NE,5.8,-,N/A,,Unknown,50,2012-11-06 06:52:00
11:52 PM,48.9,24.1,38,30.04,-9999.0,NE,5.8,-,N/A,,Unknown,50,2012-11-06 07:52:00